• In Czech Republic
  • List of Countries
  • For 7 days
  • Water Temperature
  • Satellite Maps
  • Weather Map
  • Weather Widgets
  • user-avatar
    Login

    Hourly Weather Niziny

    Today, 19 April, Thursday

    Time Temperature Precipitation Wind Pressure Humidity
    00:00 +10°C° 0 mm 2 mps 754 mmHg 82%
    01:00 +10°C° 0 mm 2 mps 754 mmHg 84%
    02:00 +10°C° 0 mm 1 mps 754 mmHg 87%
    03:00 +9°C° 0 mm 2 mps 753 mmHg 86%
    04:00 +9°C° 0 mm 2 mps 753 mmHg 86%
    05:00 +9°C° 0 mm 3 mps 753 mmHg 85%
    06:00 +10°C° 0 mm 4 mps 752 mmHg 80%
    07:00 +11°C° 0 mm 4 mps 752 mmHg 76%
    08:00 +13°C° 0 mm 5 mps 752 mmHg 71%
    09:00 +14°C° 0 mm 6 mps 752 mmHg 67%
    10:00 +16°C° 0 mm 6 mps 752 mmHg 64%
    11:00 +17°C° 0 mm 6 mps 751 mmHg 60%
    12:00 +19°C° 0 mm 6 mps 751 mmHg 57%
    13:00 +20°C° 0 mm 7 mps 751 mmHg 53%
    14:00 +22°C° 0 mm 6 mps 750 mmHg 48%
    15:00 +21°C° 0 mm 7 mps 750 mmHg 49%
    16:00 +21°C° 0 mm 7 mps 750 mmHg 51%
    17:00 +20°C° 0 mm 7 mps 749 mmHg 52%
    18:00 +19°C° 0 mm 6 mps 750 mmHg 57%
    19:00 +16°C° 0 mm 5 mps 750 mmHg 61%
    20:00 +14°C° 0 mm 4 mps 750 mmHg 66%
    21:00 +13°C° 0 mm 4 mps 750 mmHg 67%
    22:00 +12°C° 0 mm 4 mps 750 mmHg 69%
    23:00 +11°C° 0 mm 4 mps 751 mmHg 70%

    Tomorrow, 20 April, Friday

    Time Temperature Precipitation Wind Pressure Humidity
    00:00 +10°C° 0 mm 4 mps 751 mmHg 72%
    01:00 +10°C° 0 mm 3 mps 751 mmHg 74%
    02:00 +9°C° 0 mm 3 mps 751 mmHg 77%
    03:00 +8°C° 0 mm 3 mps 751 mmHg 80%
    04:00 +7°C° 0 mm 3 mps 752 mmHg 83%
    05:00 +7°C° 0 mm 2 mps 752 mmHg 86%
    06:00 +8°C° 0 mm 2 mps 752 mmHg 82%
    07:00 +9°C° 0 mm 3 mps 752 mmHg 77%
    08:00 +10°C° 0 mm 3 mps 752 mmHg 73%
    09:00 +11°C° 0 mm 3 mps 752 mmHg 66%
    10:00 +13°C° 0 mm 3 mps 752 mmHg 59%
    11:00 +14°C° 0 mm 4 mps 752 mmHg 52%
    12:00 +15°C° 0 mm 4 mps 752 mmHg 48%
    13:00 +17°C° 0 mm 3 mps 752 mmHg 45%
    14:00 +18°C° 0 mm 3 mps 752 mmHg 42%
    15:00 +18°C° 0 mm 3 mps 751 mmHg 43%
    16:00 +18°C° 0 mm 3 mps 751 mmHg 44%
    17:00 +18°C° 0 mm 3 mps 751 mmHg 44%
    18:00 +16°C° 0 mm 2 mps 750 mmHg 50%
    19:00 +14°C° 0 mm 1 mps 750 mmHg 56%
    20:00 +12°C° 0 mm 0 mps 750 mmHg 62%
    21:00 +12°C° 0 mm 1 mps 750 mmHg 63%
    22:00 +12°C° 0 mm 1 mps 750 mmHg 64%
    23:00 +11°C° 0 mm 1 mps 750 mmHg 66%

    Day after tomorrow, 21 April, Saturday

    Time Temperature Precipitation Wind Pressure Humidity
    00:00 +10°C° 0 mm 2 mps 750 mmHg 67%
    01:00 +9°C° 0 mm 2 mps 749 mmHg 68%
    02:00 +9°C° 0 mm 2 mps 749 mmHg 69%
    03:00 +9°C° 0 mm 2 mps 749 mmHg 69%
    04:00 +9°C° 0 mm 2 mps 748 mmHg 69%
    05:00 +8°C° 0 mm 2 mps 748 mmHg 68%
    06:00 +10°C° 0 mm 3 mps 748 mmHg 64%
    07:00 +12°C° 0 mm 4 mps 747 mmHg 60%
    08:00 +14°C° 0 mm 4 mps 747 mmHg 56%
    09:00 +16°C° 0 mm 5 mps 747 mmHg 52%
    10:00 +19°C° 0 mm 5 mps 746 mmHg 48%
    11:00 +21°C° 0 mm 6 mps 746 mmHg 44%
    12:00 +22°C° 0 mm 6 mps 746 mmHg 44%
    13:00 +23°C° 0 mm 6 mps 745 mmHg 45%
    14:00 +24°C° 0 mm 7 mps 745 mmHg 45%
    15:00 +23°C° 0.2 mm 6 mps 745 mmHg 50%
    16:00 +23°C° 0.2 mm 6 mps 744 mmHg 54%
    17:00 +22°C° 0.2 mm 5 mps 744 mmHg 58%
    18:00 +20°C° 0.2 mm 4 mps 744 mmHg 64%
    19:00 +19°C° 0.2 mm 4 mps 744 mmHg 69%
    20:00 +17°C° 0.2 mm 3 mps 744 mmHg 74%
    21:00 +16°C° 0 mm 3 mps 744 mmHg 76%
    22:00 +15°C° 0 mm 2 mps 745 mmHg 78%
    23:00 +14°C° 0 mm 2 mps 745 mmHg 79%

    22 April, Sunday

    Time Temperature Precipitation Wind Pressure Humidity
    00:00 +13°C° 0 mm 2 mps 745 mmHg 81%
    01:00 +12°C° 0 mm 2 mps 745 mmHg 82%
    02:00 +10°C° 0 mm 2 mps 745 mmHg 83%
    03:00 +11°C° 0 mm 1 mps 745 mmHg 84%
    04:00 +10°C° 0 mm 1 mps 745 mmHg 84%
    05:00 +9°C° 0 mm 1 mps 745 mmHg 84%
    06:00 +10°C° 0 mm 1 mps 745 mmHg 79%
    07:00 +12°C° 0 mm 2 mps 745 mmHg 73%
    08:00 +13°C° 0 mm 2 mps 746 mmHg 68%
    09:00 +14°C° 0 mm 2 mps 746 mmHg 61%
    10:00 +14°C° 0 mm 3 mps 745 mmHg 55%
    11:00 +17°C° 0 mm 3 mps 745 mmHg 48%
    12:00 +18°C° 0 mm 3 mps 745 mmHg 45%
    13:00 +18°C° 0 mm 3 mps 745 mmHg 43%
    14:00 +19°C° 0 mm 4 mps 744 mmHg 41%
    15:00 +19°C° 0 mm 4 mps 744 mmHg 42%
    16:00 +19°C° 0 mm 3 mps 744 mmHg 43%
    17:00 +19°C° 0 mm 3 mps 743 mmHg 44%
    18:00 +17°C° 0 mm 3 mps 744 mmHg 49%
    19:00 +15°C° 0 mm 2 mps 744 mmHg 55%
    20:00 +13°C° 0 mm 1 mps 744 mmHg 61%
    21:00 +12°C° 0 mm 1 mps 744 mmHg 63%
    22:00 +12°C° 0 mm 1 mps 744 mmHg 65%
    23:00 +11°C° 0 mm 1 mps 744 mmHg 66%

    23 April, Monday

    Time Temperature Precipitation Wind Pressure Humidity
    00:00 +11°C° 0 mm 1 mps 744 mmHg 67%
    01:00 +10°C° 0 mm 1 mps 744 mmHg 68%
    02:00 +10°C° 0 mm 1 mps 744 mmHg 69%
    03:00 +10°C° 0 mm 1 mps 743 mmHg 70%
    04:00 +9°C° 0 mm 1 mps 743 mmHg 71%
    05:00 +9°C° 0 mm 1 mps 743 mmHg 71%
    06:00 +11°C° 0 mm 1 mps 743 mmHg 67%
    07:00 +13°C° 0 mm 1 mps 743 mmHg 62%
    08:00 +14°C° 0 mm 1 mps 743 mmHg 58%
    09:00 +16°C° 0 mm 1 mps 743 mmHg 53%
    10:00 +19°C° 0 mm 1 mps 743 mmHg 48%
    11:00 +21°C° 0 mm 1 mps 742 mmHg 43%
    12:00 +22°C° 0 mm 1 mps 742 mmHg 42%
    13:00 +23°C° 0 mm 2 mps 741 mmHg 40%
    14:00 +24°C° 0 mm 2 mps 741 mmHg 39%
    15:00 +24°C° 0 mm 2 mps 740 mmHg 42%
    16:00 +24°C° 0 mm 3 mps 740 mmHg 45%
    17:00 +24°C° 0 mm 3 mps 739 mmHg 48%
    18:00 +21°C° 1 mm 3 mps 739 mmHg 59%
    19:00 +20°C° 1 mm 4 mps 739 mmHg 69%
    20:00 +18°C° 1 mm 4 mps 738 mmHg 80%
    21:00 +17°C° 0.9 mm 4 mps 738 mmHg 84%
    22:00 +15°C° 0.9 mm 4 mps 738 mmHg 87%
    23:00 +16°C° 0.9 mm 3 mps 738 mmHg 91%

    24 April, Tuesday

    Time Temperature Precipitation Wind Pressure Humidity
    00:00 +14°C° 0.1 mm 4 mps 739 mmHg 91%
    01:00 +14°C° 0.1 mm 5 mps 739 mmHg 92%
    02:00 +14°C° 0.1 mm 6 mps 739 mmHg 93%
    03:00 +13°C° 0.1 mm 5 mps 740 mmHg 91%
    04:00 +12°C° 0.1 mm 5 mps 740 mmHg 89%
    05:00 +10°C° 0.1 mm 5 mps 741 mmHg 88%
    06:00 +10°C° 0 mm 5 mps 741 mmHg 84%
    07:00 +12°C° 0 mm 5 mps 742 mmHg 80%
    08:00 +12°C° 0 mm 5 mps 742 mmHg 77%
    09:00 +12°C° 0.1 mm 5 mps 742 mmHg 71%
    10:00 +13°C° 0.1 mm 6 mps 743 mmHg 66%
    11:00 +14°C° 0.1 mm 6 mps 743 mmHg 61%
    12:00 +14°C° 0.1 mm 6 mps 743 mmHg 60%
    13:00 +15°C° 0.1 mm 6 mps 743 mmHg 60%
    14:00 +15°C° 0.1 mm 6 mps 743 mmHg 59%
    15:00 +15°C° 0.1 mm 6 mps 743 mmHg 59%
    16:00 +15°C° 0.1 mm 6 mps 743 mmHg 59%
    17:00 +15°C° 0.1 mm 6 mps 742 mmHg 59%
    18:00 +14°C° 0 mm 4 mps 743 mmHg 65%
    19:00 +12°C° 0 mm 3 mps 743 mmHg 71%
    20:00 +12°C° 0 mm 2 mps 743 mmHg 77%
    21:00 +12°C° 0 mm 2 mps 743 mmHg 79%
    22:00 +10°C° 0 mm 2 mps 743 mmHg 81%
    23:00 +10°C° 0 mm 2 mps 743 mmHg 83%
    Show more